TIANWANG 1B (TW-1B)
1 40927U 15051C   19133.48330409  .00014916  00000-0  23646-3 0  9997
2 40927  97.1412 179.1511 0009196 148.0828 319.2197 15.53439424204399
TIANWANG 1A (TW-1A)
1 40928U 15051D   19133.44956471  .00003472  00000-0  87341-4 0  9995
2 40928  97.1486 165.5545 0010461 197.3362 270.0869 15.40552924203592
LAPAN A2
1 40931U 15052B   19133.07830506  .00000758  00000-0  16456-4 0  9992
2 40931   5.9986 317.7283 0013980 358.4959   1.5293 14.76607019195849
LQSAT
1 40958U 15057A   19133.15544704  .00000014  00000-0  97916-5 0  9993
2 40958  97.9006 203.3336 0018136   3.3683 356.7644 14.73076771193428
CHUBUSAT 2
1 41338U 16012B   19132.89611491 +.00000373 +00000-0 +22344-4 0  9996
2 41338 031.0041 018.6067 0013645 099.1649 261.0530 15.00137510177381
CHUBUSAT 3
1 41339U 16012C   19133.33563500  .00000322  00000-0  18291-4 0  9994
2 41339  31.0109  13.9557 0013404 110.3491 249.8595 15.00314040177440
OUFTI-1
1 41458U 16025C   19133.50534483  .00002805  00000-0  14500-3 0  9993
2 41458  98.1017 218.5144 0168324 118.5815 243.2464 15.05704435167135
E-STAR-2
1 41459U 16025D   19133.44679660  .00003697  00000-0  19138-3 0  9996
2 41459  98.0994 218.1342 0168803 120.0972 241.7142 15.05351864167094
AAUSAT 4
1 41460U 16025E   19133.46725074  .00003424  00000-0  17405-3 0  9994
2 41460  98.0947 219.3081 0159334 112.8966 248.9215 15.07184433167210
NUSAT 1
1 41557U 16033B   19133.54794642  .00001664  00000-0  65190-4 0  9995
2 41557  97.4169 221.2610 0015461  69.0491 291.2401 15.27121336164573
BEESAT 4
1 41619U 16040W   19132.85510226  .00001605  00000-0  71086-4 0  9995
2 41619  97.3703 195.7607 0012375 146.2787 213.9239 15.23019848148250
PRATHAM
1 41783U 16059A   19133.14551569  .00000051  00000-0  19038-4 0  9998
2 41783  98.0704 193.5281 0034619 137.3979 222.9918 14.62989235140203
ALSAT 1N
1 41789U 16059G   19133.43867028  .00000075  00000-0  23109-4 0  9996
2 41789  98.0719 195.7284 0029360 126.1907 234.2023 14.64236564140346
NAYIF 1
1 42017U 17008BX  19133.16073996  .00001593  00000-0  65914-4 0  9995
2 42017  97.4053 200.6279 0004726 307.4060  52.6747 15.25416243124358
MAX VALIER SAT
1 42778U 17036P   19133.17106251  .00001061  00000-0  49504-4 0  9999
2 42778  97.3574 191.6361 0012202   1.3310 358.7956 15.21942604104683
